{"data":{"norad_id":61775,"intl_designator":"2024-199AS","name":"2024-199AS","alt_names":[],"object_type":"PAYLOAD","status":"ACTIVE","operator":null,"country":"TBD","launch_date":"2024-11-04","launch_site_code":"VOSTO","launch_vehicle":null,"mission":null,"orbit_class":"UNKNOWN","rcs_meters":null,"size_class":null,"mass_kg":null,"dimensions":null,"purposes":[],"wikipedia_slug":null,"has_3d_model":false,"image_url":null,"decayed_at":null,"tle_current":{"epoch":"2026-05-25T03:27:54.724896Z","epoch_age_seconds":52717,"freshness":"FRESH","line1":"1 61775U 24199AS  26145.14438339  .00016006  00000+0  35639-3 0  9995","line2":"2 61775  97.3024  17.3753 0014992  10.8720 349.2849 15.43582084130612","mean_motion":15.43582084,"eccentricity":0.0014992,"inclination_deg":97.3024,"raan_deg":17.3753,"arg_perigee_deg":10.872,"mean_anomaly_deg":349.2849,"bstar":0.00035639,"rev_number":13061,"period_min":93.289499465323,"perigee_km":425.33245074276,"apogee_km":445.76260242727,"semimajor_km":6813.684526585,"source":"CELESTRAK","updated_at":"2026-05-25T13:38:02.560435Z"}}}